Temp
-8 -8 -8 -8 -8 -8 -8 -9 -9 -9 -9 -9 -9 -9 -10 -10 -10 -10 -10 -10 -10 -10 -10 -10 -10 -10 -10 -10 -10 -10 -10 -10 -10 -10 -10 -10 -10 -10 -10 -10 -10 -10 -10 -9 -9 -9 -9 -9 -9
-9 -8 -8 -8 -8 -8 -8 -9 -9 -9 -9 -9 -9 -9 -9 -9 -10 -10 -10 -10 -10 -10 -10 -10 -10 -10 -10 -10 -10 -10 -10 -10 -10 -10 -10 -10 -10 -10 -10 -10 -10 -10 -10 -9 -9 -9 -9 -9 -9
-9 -8 -8 -9 -9 -9 -9 -9 -9 -9 -9 -9 -9 -9 -9 -9 -9 -10 -10 -10 -10 -10 -10 -10 -10 -10 -10 -10 -10 -10 -10 -10 -10 -10 -10 -10 -10 -10 -10 -10 -10 -10 -10 -9 -9 -9 -9 -9 -9
-9 -9 -9 -9 -9 -9 -9 -9 -9 -9 -10 -9 -9 -10 -10 -10 -10 -10 -10 -10 -10 -10 -10 -10 -10 -10 -10 -10 -10 -10 -10 -10 -10 -10 -10 -10 -10 -10 -10 -10 -10 -10 -10 -10 -10 -9 -9 -9 -9
-9 -9 -9 -9 -9 -9 -10 -10 -10 -10 -10 -10 -10 -9 -10 -10 -10 -10 -10 -10 -10 -10 -10 -10 -10 -10 -10 -10 -10 -10 -10 -10 -10 -10 -10 -10 -10 -10 -10 -10 -10 -10 -10 -10 -10 -10 -10 -10 -10
-9 -9 -9 -9 -9 -10 -10 -10 -10 -10 -10 -10 -10 -10 -10 -10 -10 -10 -10 -10 -10 -10 -10 -10 -10 -10 -10 -10 -10 -10 -10 -10 -10 -10 -10 -10 -10 -10 -10 -10 -10 -10 -10 -10 -10 -10 -10 -10 -10
-9 -9 -9 -10 -10 -10 -10 -10 -10 -11 -11 -11 -10 -10 -10 -10 -10 -10 -11 -10 -10 -10 -10 -10 -10 -10 -10 -10 -10 -10 -10 -10 -10 -10 -10 -10 -10 -10 -10 -10 -10 -10 -10 -10 -10 -10 -10 -10 -10
-9 -9 -10 -10 -10 -10 -10 -10 -10 -11 -11 -11 -11 -10 -10 -10 -10 -10 -11 -11 -11 -11 -11 -11 -11 -11 -10 -10 -10 -10 -10 -10 -10 -10 -10 -10 -10 -10 -10 -10 -10 -10 -10 -10 -10 -10 -10 -10 -10
-9 -9 -10 -10 -10 -10 -10 -10 -10 -11 -11 -11 -10 -11 -10 -10 -11 -11 -11 -11 -11 -11 -11 -11 -11 -11 -11 -10 -10 -10 -10 -10 -10 -10 -10 -10 -10 -10 -10 -10 -10 -10 -10 -10 -10 -10 -10 -10 -10
-9 -10 -10 -10 -10 -10 -10 -10 -10 -10 -11 -11 -11 -11 -11 -11 -11 -11 -11 -11 -11 -11 -11 -11 -11 -11 -11 -11 -11 -11 -11 -11 -11 -11 -10 -10 -10 -10 -11 -10 -10 -10 -10 -10 -10 -10 -10 -10 -10
-10 -10 -10 -10 -10 -10 -10 -10 -10 -10 -10 -11 -11 -11 -11 -11 -11 -11 -11 -11 -11 -11 -11 -11 -11 -11 -11 -11 -10 -11 -11 -11 -11 -11 -11 -11 -11 -11 -11 -11 -11 -11 -11 -11 -10 -10 -10 -10 -10
-10 -10 -10 -11 -11 -10 -10 -11 -11 -10 -10 -10 -11 -10 -10 -11 -11 -11 -11 -11 -11 -11 -11 -11 -11 -10 -10 -10 -10 -11 -11 -11 -11 -11 -11 -11 -11 -11 -11 -11 -11 -11 -11 -11 -11 -11 -10 -10 -10
-10 -10 -10 -10 -10 -11 -10 -11 -10 -11 -10 -11 -11 -11 -11 -11 -11 -11 -11 -11 -11 -11 -11 -10 -10 -10 -10 -10 -10 -11 -11 -11 -12 -11 -11 -11 -11 -11 -11 -11 -11 -11 -11 -11 -11 -11 -11 -10 -10
-10 -11 -11 -11 -11 -11 -11 -11 -11 -11 -10 -10 -11 -11 -11 -11 -11 -11 -11 -10 -10 -10 -10 -10 -10 -11 -11 -11 -11 -11 -11 -11 -12 -12 -12 -11 -11 -11 -11 -11 -11 -11 -11 -11 -11 -11 -11 -11 -11
-11 -10 -11 -11 -11 -10 -10 -11 -11 -10 -10 -10 -11 -11 -11 -11 -10 -10 -10 -9 -10 -10 -10 -10 -10 -10 -11 -11 -11 -11 -11 -11 -11 -12 -12 -12 -12 -12 -12 -11 -11 -11 -11 -11 -11 -11 -11 -11 -11
-10 -10 -10 -11 -10 -10 -10 -10 -11 -10 -10 -10 -11 -11 -10 -11 -11 -9 -9 -10 -10 -10 -11 -10 -10 -10 -10 -11 -11 -11 -11 -11 -11 -11 -12 -12 -12 -12 -12 -12 -12 -12 -11 -11 -11 -11 -11 -11 -11
-11 -11 -11 -11 -11 -10 -9 -9 -10 -11 -11 -11 -11 -11 -11 -10 -9 -10 -10 -10 -11 -11 -11 -11 -11 -11 -10 -10 -10 -11 -11 -11 -11 -11 -11 -12 -12 -12 -12 -12 -12 -12 -12 -12 -11 -11 -11 -11 -11
-11 -11 -11 -11 -11 -11 -10 -9 -9 -9 -9 -10 -10 -10 -10 -9 -9 -10 -11 -11 -11 -11 -11 -11 -11 -11 -11 -10 -10 -11 -11 -11 -11 -11 -11 -11 -12 -12 -12 -12 -12 -12 -12 -12 -12 -12 -12 -12 -12
-11 -11 -10 -11 -11 -11 -10 -10 -10 -11 -11 -11 -11 -10 -10 -10 -11 -10 -10 -10 -11 -10 -11 -11 -11 -11 -11 -11 -11 -11 -11 -11 -11 -11 -11 -11 -11 -12 -12 -12 -12 -12 -12 -12 -12 -12 -12 -12 -12
-11 -11 -11 -11 -11 -11 -11 -11 -11 -11 -12 -12 -11 -11 -11 -11 -11 -11 -11 -11 -11 -11 -11 -11 -11 -11 -11 -11 -11 -11 -11 -11 -11 -11 -11 -11 -11 -11 -12 -12 -12 -12 -12 -12 -12 -12 -12 -12 -12
-12 -12 -12 -12 -12 -12 -12 -11 -12 -12 -12 -11 -11 -12 -12 -11 -11 -11 -11 -11 -11 -11 -11 -11 -11 -11 -11 -11 -11 -11 -11 -11 -11 -12 -12 -12 -12 -11 -12 -12 -12 -12 -12 -12 -12 -12 -12 -12 -12
-12 -12 -12 -12 -12 -12 -12 -11 -12 -13 -12 -11 -11 -14 -14 -13 -13 -12 -12 -12 -11 -11 -11 -11 -11 -11 -12 -13 -13 -13 -13 -13 -12 -12 -12 -12 -12 -12 -12 -11 -12 -12 -12 -12 -12 -12 -12 -12 -12
-13 -13 -13 -13 -13 -13 -13 -13 -12 -13 -13 -13 -13 -14 -14 -14 -15 -15 -15 -14 -13 -13 -13 -12 -12 -12 -13 -13 -14 -14 -13 -13 -13 -13 -12 -12 -12 -12 -12 -12 -12 -12 -12 -12 -12 -13 -13 -12 -12
-14 -13 -14 -14 -14 -13 -14 -13 -12 -13 -14 -14 -15 -15 -15 -16 -16 -15 -16 -16 -15 -15 -14 -14 -13 -13 -13 -14 -14 -14 -14 -14 -13 -13 -12 -12 -13 -12 -12 -12 -12 -11 -11 -12 -12 -12 -12 -12 -13
-15 -15 -15 -14 -14 -14 -14 -13 -13 -14 -14 -14 -15 -15 -16 -16 -17 -17 -17 -17 -17 -16 -16 -15 -15 -14 -14 -15 -15 -15 -14 -14 -14 -14 -14 -14 -13 -13 -13 -12 -12 -12 -12 -11 -12 -12 -12 -12 -12
-15 -16 -16 -16 -15 -15 -14 -14 -14 -15 -16 -16 -16 -15 -16 -16 -16 -17 -18 -18 -18 -17 -17 -16 -16 -16 -16 -16 -16 -15 -15 -15 -15 -15 -14 -14 -14 -14 -14 -13 -13 -13 -13 -13 -13 -13 -12 -13 -12
-16 -16 -17 -17 -16 -16 -15 -15 -15 -16 -16 -16 -16 -16 -17 -17 -17 -17 -17 -17 -17 -17 -17 -17 -17 -16 -15 -15 -16 -16 -16 -16 -16 -16 -15 -15 -15 -15 -15 -15 -15 -14 -14 -14 -14 -13 -14 -14 -14
-18 -18 -18 -18 -19 -18 -17 -17 -16 -17 -18 -18 -18 -18 -18 -18 -18 -18 -18 -18 -18 -18 -18 -18 -18 -18 -17 -17 -17 -17 -17 -17 -17 -17 -16 -16 -16 -16 -16 -16 -16 -16 -15 -15 -15 -15 -14 -14 -14
-18 -18 -18 -19 -19 -19 -19 -18 -18 -18 -18 -18 -19 -19 -19 -19 -20 -20 -19 -20 -20 -20 -20 -20 -20 -20 -20 -19 -19 -19 -18 -18 -19 -19 -18 -18 -18 -17 -17 -18 -17 -17 -17 -16 -16 -16 -16 -16 -16
-19 -19 -19 -19 -19 -20 -21 -21 -20 -20 -20 -20 -21 -21 -20 -20 -20 -21 -21 -21 -21 -21 -21 -21 -21 -21 -21 -20 -20 -20 -20 -20 -20 -20 -20 -20 -19 -19 -19 -18 -18 -17 -18 -18 -17 -17 -16 -17 -17
Height
5869 5869 5869 5868 5870 5867 5865 5865 5865 5864 5864 5863 5862 5861 5860 5859 5859 5860 5857 5857 5857 5857 5858 5857 5857 5857 5857 5857 5857 5857 5857 5858 5859 5860 5861 5862 5863 5864 5865 5866 5868 5869 5870 5871 5872 5874 5875 5876 5877
5870 5870 5870 5869 5869 5867 5866 5866 5865 5865 5864 5863 5862 5861 5860 5860 5859 5858 5857 5857 5857 5857 5856 5857 5857 5857 5857 5857 5857 5857 5858 5858 5859 5859 5860 5861 5862 5863 5864 5865 5866 5868 5869 5870 5871 5873 5874 5874 5875
5871 5870 5870 5869 5868 5867 5867 5867 5866 5865 5864 5863 5863 5862 5861 5861 5859 5859 5858 5857 5856 5856 5856 5856 5857 5857 5857 5857 5857 5858 5858 5858 5858 5859 5859 5860 5861 5861 5862 5864 5865 5867 5868 5869 5870 5872 5873 5873 5874
5871 5871 5870 5869 5867 5867 5867 5867 5865 5865 5864 5863 5862 5862 5861 5861 5860 5859 5858 5857 5856 5856 5855 5855 5855 5856 5857 5857 5857 5857 5857 5858 5858 5859 5859 5859 5859 5860 5861 5862 5863 5865 5866 5867 5868 5869 5870 5871 5872
5870 5869 5869 5867 5866 5866 5866 5865 5864 5863 5862 5862 5861 5860 5861 5860 5859 5858 5858 5857 5856 5855 5855 5854 5854 5854 5854 5855 5856 5856 5856 5857 5857 5857 5858 5859 5859 5859 5860 5861 5862 5863 5864 5865 5866 5867 5868 5869 5870
5868 5868 5867 5866 5864 5864 5865 5864 5863 5862 5861 5861 5860 5858 5858 5857 5858 5857 5856 5855 5855 5855 5854 5853 5853 5853 5852 5853 5853 5853 5854 5855 5856 5856 5856 5857 5858 5859 5859 5859 5860 5861 5862 5863 5864 5865 5865 5867 5868
5866 5866 5865 5864 5862 5861 5862 5861 5860 5859 5859 5858 5858 5856 5855 5856 5854 5854 5853 5853 5852 5852 5852 5852 5852 5851 5851 5851 5851 5851 5852 5852 5852 5853 5854 5855 5856 5857 5857 5858 5858 5859 5860 5861 5862 5863 5863 5864 5866
5863 5864 5863 5861 5859 5857 5858 5857 5857 5856 5855 5855 5854 5852 5852 5852 5851 5850 5849 5849 5849 5849 5849 5849 5849 5849 5849 5849 5849 5850 5850 5850 5850 5850 5851 5852 5853 5854 5855 5856 5856 5857 5857 5858 5859 5860 5861 5862 5863
5860 5860 5859 5857 5856 5854 5854 5855 5853 5853 5852 5850 5850 5849 5848 5849 5847 5846 5845 5844 5844 5844 5845 5845 5846 5846 5846 5846 5846 5847 5847 5847 5846 5847 5847 5848 5849 5849 5851 5852 5852 5853 5854 5855 5856 5856 5857 5858 5859
5856 5857 5855 5854 5852 5852 5850 5850 5849 5849 5849 5847 5844 5845 5845 5844 5842 5841 5840 5839 5839 5840 5841 5841 5841 5842 5842 5842 5842 5843 5843 5843 5843 5843 5843 5844 5845 5845 5846 5846 5847 5849 5850 5850 5851 5852 5853 5854 5855
5853 5852 5850 5851 5848 5848 5846 5845 5844 5843 5846 5840 5841 5841 5840 5838 5838 5837 5835 5834 5834 5835 5835 5834 5835 5835 5836 5836 5836 5837 5837 5838 5839 5839 5838 5839 5840 5841 5841 5842 5843 5844 5844 5845 5846 5847 5848 5849 5850
5848 5846 5845 5845 5843 5843 5842 5840 5839 5839 5841 5837 5834 5836 5836 5834 5831 5830 5831 5830 5830 5828 5828 5827 5827 5829 5830 5830 5831 5831 5831 5831 5832 5832 5833 5833 5834 5835 5835 5835 5836 5837 5839 5839 5840 5840 5841 5842 5843
5841 5841 5840 5838 5838 5836 5835 5836 5830 5837 5831 5832 5831 5831 5829 5829 5826 5822 5823 5824 5824 5824 5821 5822 5822 5822 5823 5824 5825 5825 5825 5825 5824 5825 5826 5827 5827 5828 5828 5829 5829 5830 5831 5833 5833 5834 5835 5835 5837
5835 5834 5834 5833 5830 5828 5829 5831 5825 5829 5826 5827 5825 5825 5824 5821 5819 5816 5815 5817 5816 5817 5817 5816 5817 5816 5816 5817 5817 5818 5819 5819 5818 5818 5819 5820 5819 5820 5821 5821 5822 5823 5823 5824 5824 5826 5827 5828 5829
5827 5824 5827 5827 5822 5818 5819 5825 5821 5818 5820 5821 5821 5819 5815 5813 5811 5808 5806 5808 5810 5811 5811 5811 5810 5811 5809 5809 5809 5809 5811 5811 5812 5812 5811 5812 5812 5812 5812 5812 5813 5814 5815 5816 5816 5817 5818 5819 5820
5819 5816 5815 5818 5814 5811 5808 5810 5816 5813 5813 5812 5814 5811 5808 5806 5800 5795 5804 5804 5802 5802 5803 5803 5803 5802 5802 5800 5800 5801 5801 5802 5803 5804 5804 5804 5804 5804 5805 5804 5804 5804 5805 5806 5807 5808 5809 5810 5811
5811 5807 5807 5803 5804 5803 5799 5795 5804 5811 5805 5805 5806 5803 5800 5796 5789 5795 5795 5795 5795 5793 5793 5793 5794 5793 5792 5792 5791 5791 5791 5792 5793 5793 5794 5795 5795 5794 5796 5795 5796 5796 5797 5796 5797 5798 5798 5800 5801
5798 5798 5795 5793 5796 5794 5793 5790 5789 5791 5798 5798 5797 5795 5791 5786 5790 5789 5786 5785 5785 5785 5785 5784 5783 5783 5782 5782 5782 5780 5781 5781 5782 5783 5783 5784 5786 5785 5785 5787 5786 5786 5788 5788 5788 5788 5789 5790 5791
5790 5788 5784 5785 5786 5783 5784 5786 5783 5784 5783 5786 5787 5784 5783 5783 5784 5780 5778 5777 5776 5775 5776 5776 5775 5773 5773 5772 5772 5772 5771 5772 5771 5772 5773 5774 5775 5776 5774 5776 5776 5777 5777 5777 5777 5779 5779 5781 5781
5781 5777 5778 5775 5774 5773 5773 5771 5775 5775 5775 5773 5771 5774 5776 5776 5773 5772 5770 5768 5766 5765 5765 5765 5766 5766 5765 5763 5763 5762 5762 5762 5762 5761 5761 5761 5763 5765 5764 5763 5765 5767 5767 5766 5767 5769 5768 5770 5772
5771 5769 5768 5765 5762 5763 5758 5758 5760 5765 5767 5760 5761 5763 5763 5764 5763 5762 5761 5759 5758 5756 5755 5754 5754 5755 5754 5753 5753 5753 5753 5752 5751 5752 5752 5751 5751 5752 5752 5750 5750 5754 5756 5756 5756 5758 5758 5758 5760
5760 5761 5760 5757 5756 5754 5748 5743 5747 5750 5745 5743 5744 5743 5746 5748 5749 5749 5749 5748 5748 5746 5743 5743 5742 5742 5742 5742 5742 5741 5740 5741 5741 5741 5740 5739 5740 5739 5740 5741 5739 5738 5742 5743 5745 5745 5747 5746 5748
5749 5749 5750 5749 5747 5743 5744 5743 5737 5734 5730 5731 5733 5732 5734 5735 5734 5734 5734 5733 5733 5733 5733 5731 5729 5728 5728 5728 5729 5729 5730 5731 5730 5729 5729 5729 5728 5726 5725 5726 5728 5726 5728 5729 5729 5731 5732 5732 5733
5742 5741 5740 5737 5735 5735 5735 5731 5731 5729 5727 5725 5722 5722 5721 5719 5720 5721 5722 5723 5723 5722 5722 5721 5720 5719 5715 5713 5712 5713 5715 5716 5716 5716 5715 5715 5715 5715 5714 5713 5713 5713 5713 5713 5713 5714 5715 5717 5718
5732 5729 5726 5726 5726 5726 5721 5721 5725 5721 5715 5714 5715 5711 5710 5709 5708 5707 5708 5708 5708 5708 5708 5709 5707 5704 5704 5701 5697 5696 5695 5700 5700 5699 5699 5699 5699 5699 5699 5700 5699 5699 5698 5699 5699 5699 5700 5700 5702
5719 5717 5717 5710 5712 5711 5717 5714 5719 5714 5707 5701 5700 5700 5700 5696 5695 5695 5694 5693 5693 5692 5691 5690 5689 5688 5686 5684 5680 5678 5677 5681 5679 5679 5679 5680 5681 5681 5682 5683 5683 5682 5682 5682 5682 5684 5685 5684 5685
5706 5704 5703 5695 5699 5694 5703 5700 5704 5703 5694 5691 5689 5687 5683 5680 5678 5678 5677 5675 5674 5673 5673 5671 5670 5671 5670 5668 5663 5661 5663 5662 5660 5659 5659 5658 5658 5659 5661 5662 5663 5663 5663 5662 5663 5664 5665 5667 5668
5692 5692 5688 5684 5679 5676 5679 5684 5688 5683 5677 5676 5674 5670 5666 5663 5662 5660 5658 5658 5655 5652 5651 5650 5650 5649 5647 5646 5645 5642 5640 5639 5640 5640 5638 5637 5636 5636 5635 5637 5639 5640 5641 5642 5642 5642 5643 5645 5647
5679 5679 5677 5673 5669 5661 5661 5667 5673 5666 5663 5657 5652 5650 5648 5646 5644 5641 5639 5637 5635 5633 5631 5628 5626 5625 5625 5623 5621 5619 5619 5617 5617 5617 5616 5616 5616 5615 5614 5613 5614 5614 5616 5617 5619 5619 5620 5623 5625
5661 5662 5662 5655 5655 5650 5644 5642 5653 5651 5648 5640 5636 5633 5630 5630 5627 5624 5621 5620 5616 5613 5611 5609 5606 5603 5601 5600 5598 5598 5596 5594 5595 5594 5593 5594 5594 5594 5592 5592 5591 5591 5591 5591 5593 5595 5596 5598 5601
Wind_Speed
7 8 9 10 10 11 13 11 10 9 7 7 8 8 7 8 9 10 9 6 7 8 5 4 5 5 4 4 2 2 5 8 10 12 12 13 12 12 14 15 18 17 15 17 16 15 13 11 12
5 6 7 7 8 11 10 10 9 8 8 7 6 7 8 8 7 8 9 9 8 8 9 8 6 6 7 5 3 3 4 5 7 8 10 11 13 16 15 14 16 17 15 15 15 16 16 14 15
5 6 7 7 8 9 8 8 9 10 9 8 7 7 7 7 8 7 6 7 8 8 9 9 10 9 9 9 8 6 4 4 5 7 8 8 10 12 15 16 16 17 17 16 15 15 17 15 17
7 8 10 10 10 9 7 7 10 10 11 12 11 9 9 7 7 9 9 8 7 7 8 8 9 11 12 12 12 11 10 9 9 8 7 8 9 9 10 12 16 17 18 17 17 17 17 17 18
10 11 12 13 14 13 11 11 12 12 13 13 14 15 11 11 10 10 10 10 9 8 8 9 9 9 11 14 14 14 14 14 13 12 12 11 10 11 11 11 12 12 14 16 16 17 17 16 16
13 15 15 16 17 16 15 16 17 17 17 16 18 19 19 17 14 14 14 13 13 12 10 10 10 10 10 10 13 16 17 17 17 17 16 15 14 14 14 13 13 13 14 15 15 16 14 14 15
17 17 17 18 19 20 17 18 20 21 20 20 19 21 22 19 21 20 18 18 17 16 15 13 12 12 12 12 11 12 15 18 20 19 19 19 18 17 17 17 16 17 17 18 18 17 17 17 18
20 19 18 18 20 21 18 20 20 21 22 21 21 22 21 20 22 23 24 22 21 20 20 19 18 16 15 14 13 14 13 14 16 20 21 22 21 21 21 21 21 21 21 21 21 21 22 22 22
23 21 19 21 21 23 21 19 23 22 20 23 21 23 25 21 23 24 24 25 24 24 23 23 22 22 21 19 18 17 15 15 17 16 16 19 21 23 24 24 25 26 26 25 26 26 26 26 25
24 21 21 21 22 23 25 25 24 23 23 23 28 23 22 22 24 23 24 25 25 25 26 26 26 25 25 24 23 22 21 20 19 19 19 18 17 18 19 21 23 25 27 28 30 30 30 29 28
23 23 23 21 25 24 27 27 28 27 20 30 27 28 27 26 22 22 25 24 24 23 23 25 26 27 27 27 26 27 26 25 24 23 22 21 20 20 21 21 21 22 22 24 27 30 32 32 33
24 26 26 26 30 30 31 31 31 30 25 29 33 30 29 28 30 29 26 28 25 23 22 22 23 23 25 25 25 26 27 29 29 28 26 27 26 24 25 25 24 24 24 24 26 26 27 29 32
28 27 29 34 32 31 32 31 35 27 32 29 31 31 32 31 33 35 31 30 29 29 27 23 23 23 24 26 27 26 26 27 30 31 30 30 30 30 31 30 30 28 28 26 28 27 27 27 28
32 32 33 32 34 35 34 32 36 30 32 31 33 33 34 34 35 37 38 33 31 29 29 28 25 27 27 27 29 29 28 27 27 28 28 29 31 32 34 34 34 34 33 31 31 30 30 30 29
35 37 34 33 38 41 39 31 33 35 33 32 31 33 36 37 36 38 37 35 33 33 31 30 30 29 31 32 32 32 32 31 29 29 28 27 28 29 31 33 35 35 36 36 36 35 34 33 33
40 41 40 37 40 41 43 41 33 36 34 35 31 33 36 37 42 43 36 35 36 37 35 34 34 33 33 36 36 36 37 37 35 33 33 30 30 32 31 33 34 36 36 37 38 38 37 37 36
41 46 45 47 44 41 44 46 39 32 37 36 34 38 39 39 43 40 39 37 38 39 38 38 36 36 34 34 36 37 36 37 39 39 38 37 36 37 35 36 37 39 38 39 38 38 40 40 39
46 46 49 50 47 48 47 48 48 45 39 38 40 38 38 45 39 37 40 38 37 38 39 39 40 38 37 38 38 40 41 40 40 43 42 41 39 41 41 40 41 42 41 41 39 40 41 41 41
52 53 52 51 48 50 48 47 50 51 50 42 39 40 42 42 34 38 39 41 42 41 41 39 39 39 37 39 42 40 37 39 38 38 43 44 42 43 44 44 44 44 44 44 43 40 41 41 42
53 58 55 52 52 53 52 53 47 46 46 48 50 46 42 41 41 39 39 42 43 43 41 39 39 40 42 42 40 41 43 43 43 41 41 43 43 43 45 47 47 47 46 46 45 44 45 46 45
50 50 51 53 51 50 56 58 56 52 47 50 50 46 43 41 42 44 45 46 46 47 47 46 44 44 45 45 45 46 46 47 47 48 45 42 43 46 46 46 47 48 49 50 49 47 48 49 48
45 45 49 52 55 56 57 62 59 55 58 61 57 48 45 44 43 42 42 44 45 49 49 51 48 47 46 46 45 44 45 44 46 46 42 44 46 45 45 47 49 50 48 51 52 52 50 53 52
48 46 46 47 51 56 55 57 61 59 61 61 58 56 52 49 47 44 45 45 43 42 45 47 48 49 46 40 41 42 46 49 49 49 49 50 49 50 51 50 51 51 51 50 50 50 50 51 52
46 47 49 51 52 57 56 59 62 60 58 58 57 58 58 55 53 51 45 35 38 40 42 48 52 56 51 49 46 47 49 55 55 59 62 59 55 56 56 57 57 57 57 56 54 53 54 53 53
47 50 53 55 55 57 58 60 59 58 61 61 60 59 56 55 52 43 38 44 43 44 44 50 55 63 60 55 52 56 59 62 64 65 62 62 62 60 59 62 63 64 63 63 63 60 58 58 60
50 50 49 53 56 58 54 58 56 55 56 59 60 61 61 60 56 52 51 53 52 53 57 53 59 65 63 64 63 65 75 74 69 69 69 69 69 67 63 64 65 67 68 68 68 68 66 66 66
51 49 49 53 55 57 59 59 55 54 58 59 62 63 61 60 60 60 62 64 63 62 62 60 61 66 69 75 79 81 81 73 72 74 75 76 77 74 69 67 67 69 72 74 73 72 74 74 75
47 48 50 51 53 57 59 58 56 55 58 58 59 60 63 63 62 64 66 67 68 66 66 66 64 66 71 78 82 81 73 73 73 73 75 74 74 74 75 73 72 72 77 78 81 78 76 77 78
48 49 51 52 55 58 60 59 53 57 57 58 61 64 62 61 62 66 68 68 68 70 71 72 74 72 69 74 78 74 75 77 79 74 72 73 74 76 77 76 78 79 77 80 84 87 82 78 77
51 52 53 57 58 58 56 51 42 47 54 54 55 60 60 63 65 68 69 70 72 74 79 84 83 79 75 81 81 84 85 82 82 83 77 76 76 78 79 79 82 83 85 83 83 85 87 86 81
Wind_Direction
81 73 63 55 45 37 38 43 40 36 32 28 26 24 24 21 15 9 357 325 298 281 286 285 300 316 337 6 335 237 242 230 221 227 231 230 227 223 222 223 228 220 219 218 227 235 230 237 237
69 59 52 47 32 13 28 25 21 11 5 7 13 15 7 -0 11 1 3 -0 328 297 277 269 267 273 290 296 298 290 262 252 250 241 234 235 232 228 227 228 222 222 231 239 237 244 249 255 261
29 16 10 8 -0 5 8 4 351 341 336 338 346 349 349 354 349 349 347 350 349 339 308 288 271 260 259 267 274 265 263 263 253 253 252 241 236 233 233 233 228 224 231 237 233 236 242 243 246
354 340 333 334 334 339 339 332 322 322 318 321 323 327 323 332 332 334 337 334 334 335 331 320 294 272 260 260 259 260 258 252 255 254 253 253 248 246 242 238 237 235 233 240 242 244 244 243 242
325 323 319 317 318 320 315 309 305 303 300 302 304 304 310 309 308 311 314 319 320 316 319 317 315 304 278 259 256 257 257 258 254 253 252 250 252 255 252 253 252 247 241 241 243 244 245 249 250
307 309 307 308 309 310 311 308 305 301 302 300 299 300 300 300 299 298 297 298 303 304 305 301 299 301 301 291 269 255 254 256 256 257 258 255 254 253 255 252 253 253 252 248 245 245 246 246 249
300 300 300 303 302 304 306 303 302 303 304 303 299 297 295 301 295 295 291 290 291 293 294 294 293 293 289 286 288 282 268 257 254 254 253 255 256 253 254 257 256 256 254 252 250 248 247 247 249
294 294 295 295 294 293 304 300 301 301 303 303 304 297 295 298 293 291 291 289 286 286 285 285 286 284 283 284 283 281 282 278 270 261 253 254 254 254 255 253 253 254 254 254 254 253 253 255 256
288 289 292 290 292 293 296 295 298 298 296 297 298 301 306 303 299 297 293 290 286 283 281 280 281 283 281 280 279 277 276 275 274 272 268 261 258 257 257 257 256 256 255 255 257 258 258 258 259
285 289 286 291 291 295 298 300 294 294 294 290 297 303 306 310 304 298 292 287 287 285 284 281 278 278 280 279 277 275 275 273 273 271 269 266 266 266 264 263 261 259 258 258 257 256 258 261 261
284 288 284 287 290 293 293 291 290 288 290 292 290 297 305 305 301 294 289 287 286 288 289 284 278 275 274 274 272 275 273 272 272 271 269 268 266 266 265 266 266 266 264 262 263 262 260 260 261
286 283 281 287 293 294 290 288 283 287 289 281 288 295 299 299 300 297 296 292 287 284 278 281 280 277 274 269 272 276 279 274 267 267 270 273 271 268 268 268 267 267 265 265 263 261 263 263 262
286 279 281 287 290 288 287 286 285 291 282 282 282 288 290 294 294 291 290 289 287 283 280 274 277 279 277 272 271 276 280 280 271 265 266 267 267 268 269 269 269 268 268 268 269 267 265 262 263
290 285 283 287 288 288 286 286 289 283 283 284 284 285 287 286 285 285 288 286 286 285 283 282 278 274 272 271 271 270 273 274 275 269 264 264 265 264 266 267 268 269 268 266 265 264 265 266 265
287 285 288 288 286 289 290 283 283 288 291 288 285 286 284 283 283 282 278 284 290 290 287 284 281 279 277 272 269 268 268 268 268 270 269 266 266 266 265 265 265 267 268 268 267 265 263 263 263
287 288 285 282 285 289 288 284 281 290 297 294 293 287 283 280 279 277 287 290 286 284 282 280 280 279 275 274 271 269 267 267 265 263 264 263 263 261 261 264 263 263 264 265 265 265 265 265 265
288 286 286 289 286 283 284 285 286 286 288 292 291 291 287 281 281 288 285 281 284 282 281 281 279 279 273 267 270 271 269 269 267 263 260 259 261 261 256 259 262 265 265 265 265 265 263 263 262
287 291 290 287 289 292 291 292 295 297 293 294 293 290 283 285 288 288 285 282 280 278 278 278 278 273 271 270 266 267 268 266 267 268 263 259 258 261 260 258 259 262 265 267 267 265 264 264 265
288 287 285 285 285 286 287 286 291 297 299 296 291 289 290 294 292 282 280 281 281 280 281 278 277 275 269 268 268 267 270 271 268 268 271 267 261 260 263 262 261 262 263 263 264 264 264 265 265
284 287 288 288 289 288 290 289 287 286 293 296 291 288 288 291 290 286 283 282 279 280 278 278 278 274 272 271 267 261 270 269 267 265 265 268 269 266 265 264 262 261 262 262 261 261 262 264 266
280 282 282 285 285 287 291 290 291 294 293 287 289 295 291 285 282 282 281 280 279 280 279 278 278 276 273 269 269 267 266 264 263 264 266 267 266 265 265 265 264 262 262 264 265 266 266 265 264
283 283 286 287 288 291 292 293 299 303 298 296 302 310 309 304 300 295 291 286 281 278 277 278 279 273 267 267 265 268 271 266 261 260 256 261 267 264 263 265 266 264 260 263 267 267 266 266 268
284 286 285 286 287 288 291 294 297 299 299 302 309 308 304 304 304 302 298 295 289 284 281 275 275 268 260 254 263 268 267 268 262 256 260 268 269 267 265 261 261 263 265 263 264 266 267 266 267
281 284 286 286 286 285 292 290 290 296 299 302 301 301 305 306 303 300 297 282 278 274 271 269 270 268 251 249 257 268 275 272 265 264 266 266 267 267 267 265 264 263 262 261 261 262 264 266 265
286 286 286 285 286 286 288 289 289 295 296 295 298 299 299 298 297 291 276 284 276 266 265 265 261 262 257 251 253 266 276 275 270 267 264 263 264 263 261 262 263 262 260 261 262 261 260 262 264
286 287 286 285 285 284 283 286 290 292 292 291 292 291 290 289 288 286 278 280 275 265 268 262 264 263 256 251 257 273 277 276 270 269 269 269 268 265 262 261 260 260 262 260 259 259 259 259 259
288 285 283 283 282 283 286 286 286 286 285 284 285 287 286 284 281 278 276 277 277 274 269 267 262 259 259 255 257 272 269 266 265 268 267 268 269 268 264 259 259 257 258 259 258 259 260 259 259
283 283 283 286 288 287 287 289 293 288 285 283 282 281 281 280 280 280 279 276 277 276 274 274 272 262 260 259 259 261 261 255 261 264 264 264 265 267 267 265 259 258 256 257 258 259 259 259 260
279 280 284 283 283 284 286 285 284 283 281 284 282 280 276 273 276 278 279 279 279 281 279 277 277 275 266 263 262 259 259 254 264 264 264 264 263 263 266 268 268 265 260 259 259 259 260 259 259
284 285 283 284 288 284 284 282 284 277 281 274 271 269 268 270 273 276 275 271 270 274 277 279 275 276 272 258 261 266 264 264 264 265 267 268 269 268 267 266 264 265 265 265 262 261 261 261 260